RH
14 13 13 13 12 12 12 12 12 11 11 11 11 10 10 10 9 9 9 9 8 8 8 8 7 7 7 6 6 6 5 5 4 4 5 5 5 6 7 8 8 9 10 11 13 14 16 18 20 23 27 30
14 14 14 14 13 13 12 12 12 11 11 11 10 10 10 10 9 9 9 9 8 8 8 8 8 7 7 7 6 6 6 5 5 4 5 4 4 5 5 6 6 7 9 10 11 12 14 15 17 20 22 26
15 15 14 14 13 13 12 12 12 11 11 11 10 10 10 10 10 10 9 9 9 8 9 8 8 8 7 7 7 6 7 6 6 5 5 4 4 4 4 4 5 6 6 8 9 10 12 13 15 17 19 22
15 14 14 13 13 12 12 12 11 11 11 10 10 10 10 10 10 10 10 10 10 9 10 9 9 9 8 8 8 7 7 7 6 5 5 5 4 4 4 4 4 5 5 6 7 9 10 11 13 14 16 18
14 14 13 13 13 13 13 13 13 13 13 12 12 11 11 11 11 11 11 11 11 11 10 11 10 9 10 9 9 8 8 7 7 6 6 5 5 4 4 4 4 4 4 4 5 6 8 9 11 12 14 15
16 16 17 18 19 20 20 21 22 22 21 20 19 17 16 15 14 12 12 11 11 12 11 11 11 10 10 10 10 9 9 9 8 7 6 5 5 5 4 4 4 4 4 4 4 5 6 7 9 10 11 13
24 25 27 28 28 29 30 30 31 30 29 28 26 24 22 20 17 15 14 14 14 14 14 14 13 13 12 11 11 10 9 9 8 8 6 6 6 5 5 4 4 4 4 4 4 4 4 5 6 8 9 11
32 33 33 33 34 33 34 34 33 33 32 31 29 27 25 22 19 18 17 17 17 16 17 17 16 16 14 13 12 11 10 9 9 8 7 6 6 6 5 5 5 4 4 4 4 4 4 4 4 5 8 9
36 36 35 35 34 34 34 34 34 33 32 30 28 25 22 20 19 19 19 18 19 19 19 19 19 19 17 16 14 13 11 10 9 8 7 6 6 6 6 6 5 5 5 4 4 4 4 4 4 4 5 7
35 34 33 33 32 33 33 32 31 29 27 25 22 21 20 20 21 22 23 24 24 24 24 24 24 23 21 19 17 15 13 12 10 9 7 7 6 6 6 6 6 6 5 5 5 4 4 4 4 4 4 5
31 31 30 29 28 28 27 25 24 23 22 23 23 25 26 28 28 29 29 29 29 27 26 26 24 23 21 20 18 16 15 13 12 11 9 7 7 6 6 6 6 6 6 6 6 4 5 4 4 4 4 4
27 26 24 24 23 23 24 24 25 27 28 30 31 32 32 33 32 32 31 30 29 27 26 25 24 22 21 20 18 17 16 15 13 12 10 9 8 7 7 7 6 6 6 6 6 6 5 5 4 4 4 4
22 22 22 24 26 27 30 32 33 34 34 34 34 34 33 32 31 30 29 29 28 26 25 24 23 22 21 20 19 18 16 15 15 13 11 10 9 8 7 8 8 7 7 7 7 7 7 6 5 4 4 4
23 25 27 29 31 33 34 35 35 35 34 34 33 32 32 31 30 30 29 28 27 26 25 25 24 23 22 21 19 18 17 16 15 14 12 11 9 9 8 8 9 8 8 8 8 8 8 8 6 5 4 4
27 29 31 32 32 33 33 33 32 32 32 31 31 31 31 31 31 31 30 30 29 29 28 27 26 24 23 22 21 19 19 18 16 15 12 11 9 8 8 8 8 9 9 9 8 8 8 9 8 7 5 4
30 30 32 32 32 31 31 31 31 31 32 33 34 35 35 35 35 35 35 34 34 33 31 30 28 27 25 23 22 21 20 19 18 16 13 11 10 9 8 8 8 9 9 8 8 8 8 9 9 8 6 5
31 31 31 31 30 31 31 32 33 35 37 38 39 39 40 39 38 38 37 37 36 35 34 32 30 28 27 25 23 22 21 20 19 17 14 12 10 9 8 8 8 8 8 8 8 8 7 8 8 8 7 6
31 31 31 31 31 32 35 36 38 39 41 41 40 40 40 39 38 38 37 37 36 36 35 33 32 30 28 26 25 24 23 22 21 18 16 13 10 9 8 8 8 8 8 8 7 7 7 7 7 8 7 6
31 31 31 33 34 37 39 40 39 40 40 40 39 38 38 38 39 38 39 39 38 37 36 34 33 31 30 29 27 26 25 24 23 21 18 14 11 9 8 8 7 7 8 7 7 7 6 7 7 7 7 6
31 32 34 36 39 40 40 39 38 38 38 38 38 37 38 39 41 41 41 41 40 39 38 37 35 34 32 31 30 28 28 26 25 23 20 16 12 10 9 8 7 7 7 7 7 6 6 6 7 7 7 7
34 35 37 39 40 39 39 37 37 37 38 39 39 40 41 42 43 42 42 42 41 40 40 39 37 36 35 33 32 30 29 28 26 24 22 18 14 11 9 8 7 7 7 7 6 6 6 6 7 7 7 7
38 38 38 38 39 39 39 39 40 41 41 41 42 43 43 43 44 43 42 42 42 42 41 41 39 38 37 35 33 32 30 28 26 24 22 19 15 12 10 8 7 7 6 6 6 6 6 6 6 7 7 7
39 39 38 39 40 41 42 43 44 43 42 43 43 44 44 44 45 44 44 43 43 43 42 41 41 40 38 37 35 33 31 28 26 24 22 19 16 12 10 8 7 6 6 6 5 5 5 6 6 6 7 6
39 39 39 41 43 43 45 46 46 45 45 45 45 45 47 47 47 46 45 45 45 44 43 42 41 41 40 38 37 34 32 29 26 24 21 19 16 13 10 8 7 6 6 5 5 5 4 5 6 6 7 6
41 41 41 43 45 46 48 49 49 49 49 49 48 49 50 50 48 47 47 46 46 44 43 42 41 41 40 39 37 35 32 28 25 23 21 18 16 13 10 8 7 6 6 5 4 5 4 4 5 5 6 6
43 43 43 44 45 46 48 49 50 51 52 51 52 54 55 53 51 50 49 48 47 46 44 43 41 40 39 38 37 34 32 28 25 22 20 18 15 13 11 9 7 6 5 5 4 4 4 4 4 5 5 5
46 45 45 46 47 48 49 51 52 53 53 53 55 57 57 55 54 53 52 52 51 49 46 43 41 39 37 36 35 33 31 27 24 21 18 17 15 12 10 8 7 6 5 5 4 3 3 4 4 4 5 5
49 47 48 51 52 53 54 54 55 55 55 55 57 59 59 58 57 56 55 55 55 52 49 44 40 37 35 34 33 31 29 26 23 20 18 16 14 12 10 8 7 6 5 5 4 4 3 3 3 4 4 4
51 51 52 54 55 56 57 57 58 58 58 60 61 63 62 60 58 58 58 57 56 54 49 43 39 35 32 31 29 28 27 25 23 20 17 15 13 11 9 8 7 5 5 5 4 3 3 3 3 3 4 4
51 53 54 54 55 57 59 60 62 62 62 63 65 68 68 65 63 61 59 56 54 51 46 40 36 32 30 28 26 26 24 23 22 19 17 14 12 11 9 8 7 5 5 5 4 3 3 3 3 3 4 4
53 54 54 55 57 59 61 62 64 64 65 67 70 71 72 71 69 64 59 55 51 47 41 36 31 28 27 25 24 23 22 21 20 18 16 13 11 10 8 7 6 5 5 5 4 3 3 3 3 3 3 3
Wind_Speed
80 81 81 82 82 82 83 84 84 84 85 85 85 85 85 85 85 85 85 85 85 86 86 87 88 88 88 88 88 87 88 89 90 91 93 94 96 97 100 102 104 106 105 105 106 105 104 102 102 103 103 103
82 82 82 83 84 84 84 85 85 85 85 86 86 86 86 86 86 85 85 85 85 86 86 87 88 88 89 89 89 89 88 89 89 90 91 93 95 96 98 101 104 107 108 108 108 108 108 107 106 106 107 107
82 82 83 83 83 84 84 84 84 84 84 84 85 84 84 84 85 85 85 85 85 85 86 87 87 88 88 89 89 90 90 90 90 90 91 92 93 95 97 99 102 105 108 110 111 111 111 111 110 109 110 110
80 81 81 81 82 82 82 82 82 82 82 82 82 82 82 82 82 82 83 83 84 84 85 86 87 87 87 88 89 90 91 91 92 91 91 92 92 93 95 97 100 103 106 110 112 113 113 114 115 114 113 113
78 79 79 79 79 79 79 79 79 79 78 78 79 79 79 79 79 80 81 82 83 83 84 85 86 87 87 88 89 90 91 92 93 93 93 93 93 93 94 95 97 101 104 107 111 114 115 116 118 118 117 116
76 76 76 75 74 74 74 73 73 73 73 73 74 74 74 75 75 77 78 79 79 80 82 83 85 86 87 88 89 90 91 92 93 94 93 93 93 93 93 94 95 97 101 104 108 112 115 117 119 121 121 119
73 72 71 71 70 69 68 68 67 67 67 67 67 68 68 70 71 72 73 73 74 75 77 79 81 83 85 86 88 90 91 92 94 94 94 93 93 92 93 93 94 95 97 101 104 108 113 116 119 121 124 123
69 68 67 67 66 65 64 64 63 62 62 62 63 63 64 64 65 65 65 66 68 69 70 72 75 77 80 83 86 88 90 92 94 95 94 93 93 92 91 92 92 93 95 98 101 105 108 114 118 120 123 126
66 65 64 63 62 61 60 60 59 59 58 58 59 59 58 58 58 59 60 61 63 64 66 69 71 74 77 81 84 86 89 91 94 95 94 93 92 91 90 90 91 91 92 94 97 101 105 109 115 119 122 125
63 62 60 59 58 57 57 56 55 54 53 53 53 53 54 54 55 57 59 61 63 65 67 70 72 75 78 81 84 86 89 91 94 95 95 93 92 90 88 88 89 90 91 92 94 97 102 105 111 116 120 123
59 58 56 55 53 52 50 49 48 48 48 48 49 51 53 55 57 59 61 63 66 68 70 72 75 77 80 82 85 87 90 92 94 96 97 95 93 90 88 87 87 88 89 91 93 95 98 102 107 112 118 121
52 50 48 46 44 43 43 43 44 45 47 49 51 53 56 58 60 62 64 66 69 71 72 74 77 79 81 83 85 88 90 93 95 97 98 97 95 92 90 88 87 87 88 89 91 93 96 100 104 108 114 119
41 39 39 39 39 40 42 44 46 48 50 52 54 56 59 61 62 64 66 68 71 73 74 76 78 80 81 83 85 87 90 92 95 97 98 98 96 94 92 90 90 89 89 89 90 92 95 98 102 105 110 116
36 37 38 40 42 43 45 47 49 51 53 54 56 58 61 63 64 66 68 70 72 74 76 77 79 80 82 83 85 86 88 91 93 96 97 97 96 94 92 90 90 90 90 91 92 92 95 97 101 104 108 112
39 40 42 44 45 47 48 50 51 53 55 56 58 60 62 64 66 68 70 72 74 76 77 78 80 81 82 83 84 86 87 89 92 94 95 95 94 92 90 89 88 89 90 92 93 93 95 97 100 104 107 110
42 43 44 46 47 49 50 51 52 54 56 58 60 62 64 66 68 69 71 73 75 77 78 80 81 82 83 84 85 86 87 88 91 93 94 94 92 90 88 86 85 86 89 91 92 93 95 97 101 104 107 109
44 45 46 48 49 50 51 52 54 55 57 59 61 63 66 68 69 71 72 73 74 76 78 79 81 82 83 84 85 86 87 88 90 93 94 93 90 87 85 83 82 83 86 89 91 92 94 96 100 104 107 109
46 47 48 49 50 51 52 54 55 57 59 61 63 65 67 69 70 71 72 72 74 75 77 79 80 81 83 84 85 86 87 88 90 92 93 93 90 85 82 80 79 80 83 87 89 91 92 95 98 103 107 109
48 49 50 51 52 53 55 57 58 59 61 63 65 66 67 69 70 71 71 73 74 75 77 78 80 81 82 83 85 85 86 88 89 91 93 93 90 85 82 79 77 77 80 84 87 89 91 93 96 101 106 110
50 51 52 53 55 57 58 60 61 63 64 66 67 68 69 70 71 72 73 74 75 76 77 79 80 81 82 83 84 85 86 87 89 90 92 93 91 86 82 79 76 75 78 82 85 87 89 90 94 100 105 109
53 54 55 56 58 60 62 63 65 66 68 69 69 70 71 72 73 74 75 75 77 77 78 79 80 80 81 82 83 84 85 86 88 89 91 93 91 87 83 80 76 74 76 79 83 85 87 88 92 98 103 108
56 57 58 60 61 63 65 66 68 69 70 71 72 73 74 75 76 77 77 77 78 79 80 80 80 81 81 81 82 83 84 86 87 88 90 92 91 88 84 81 76 74 75 78 81 83 85 87 90 95 101 106
59 60 61 63 64 66 68 69 71 72 73 74 75 76 77 78 79 79 79 80 81 81 81 82 82 82 82 82 82 83 84 86 87 87 89 91 91 89 85 82 78 74 74 77 79 82 84 85 88 94 99 104
61 62 63 65 67 69 70 72 74 76 77 78 78 79 80 82 82 82 83 83 84 84 84 84 83 83 83 83 83 83 84 85 86 87 88 89 90 89 86 83 80 75 74 76 78 80 82 84 87 92 98 102
64 66 66 68 70 72 74 76 78 80 81 82 83 84 85 86 86 86 87 87 87 87 87 87 86 85 84 84 84 84 85 86 86 87 87 89 90 89 87 84 81 76 74 75 77 79 81 82 86 91 95 99
69 70 71 73 74 75 77 79 81 83 85 86 88 89 91 91 91 90 90 90 91 90 90 89 88 87 86 85 85 85 85 86 86 87 87 88 89 89 87 85 82 78 74 74 75 77 79 81 84 89 93 97
74 75 76 78 80 81 82 84 86 88 90 90 91 93 95 95 94 94 94 94 94 94 93 92 90 89 87 86 86 85 86 86 86 87 87 88 88 88 87 85 83 79 74 73 74 75 77 79 82 86 91 94
78 79 80 82 84 86 88 90 91 93 94 95 96 97 98 98 98 97 97 97 97 97 96 95 93 91 89 87 86 86 86 86 87 87 87 87 88 88 87 85 83 80 75 73 73 74 75 77 80 84 88 92
81 82 84 85 87 90 92 94 96 97 98 99 100 101 102 101 100 100 99 99 99 99 98 97 95 93 91 89 87 86 86 86 87 87 87 87 87 87 86 84 83 80 75 73 72 72 73 75 78 82 86 90
83 85 87 89 91 93 96 98 100 102 102 102 104 105 106 105 104 103 102 101 100 100 99 98 96 95 93 91 88 86 86 86 87 87 87 87 87 87 86 84 83 80 75 72 72 71 72 73 76 81 84 88
87 89 91 93 95 98 100 102 104 105 105 106 107 108 108 109 108 106 104 103 102 101 100 99 97 96 94 92 90 87 86 86 87 87 87 87 87 86 85 83 82 79 74 72 71 71 71 71 75 79 83 86
Wind_Direction
279 279 278 278 278 277 277 277 277 277 277 277 276 276 275 275 274 273 272 271 270 269 268 268 267 266 266 264 262 260 258 256 253 250 248 246 245 245 244 242 240 239 238 237 236 235 235 235 234 234 234 234
280 279 279 279 278 278 278 277 277 277 277 276 276 276 275 274 274 273 272 271 270 269 268 267 266 266 266 265 264 263 261 259 256 253 250 248 245 244 243 243 241 239 237 236 236 235 234 234 234 233 233 234
281 280 280 279 279 279 278 278 277 277 276 276 276 275 274 274 274 273 272 271 270 269 268 268 267 266 266 265 265 264 262 261 259 256 253 250 247 244 242 241 241 240 238 236 235 235 234 233 233 233 233 233
282 281 281 280 280 279 279 278 278 277 276 276 275 274 274 273 273 272 272 271 270 269 269 268 268 267 266 265 265 264 263 262 261 259 256 254 251 247 244 242 240 240 239 237 235 234 234 234 233 233 233 233
283 282 281 281 280 279 279 278 278 277 277 276 275 274 273 272 271 270 270 269 269 269 268 268 267 267 266 265 265 264 263 262 261 260 258 256 254 251 248 245 242 240 238 238 236 235 233 233 233 232 232 233
283 282 282 281 280 280 279 279 278 277 277 276 275 274 273 272 270 269 269 268 268 268 267 267 267 266 266 265 265 264 263 262 262 261 259 258 256 254 251 249 246 242 240 238 237 236 234 233 232 232 232 232
283 283 282 281 280 279 279 278 277 277 276 275 275 273 272 271 270 269 269 268 268 267 267 267 267 267 266 266 265 264 264 263 262 261 260 259 257 256 254 252 249 246 243 240 237 236 235 234 232 232 231 231
283 282 282 281 280 279 278 277 276 276 275 275 274 273 272 272 271 271 270 270 269 269 269 269 269 269 268 267 267 266 265 264 263 262 261 260 258 257 255 254 252 249 247 244 240 237 235 234 233 232 231 231
283 282 281 280 279 278 277 277 276 275 275 275 275 275 274 274 275 274 274 273 273 273 272 272 272 271 270 270 269 268 267 267 266 265 263 262 260 258 257 255 254 252 249 247 243 240 237 235 234 232 231 230
282 281 280 279 278 277 277 276 276 276 276 277 277 278 278 278 277 277 277 276 276 275 274 273 273 272 271 271 270 270 270 269 269 268 267 265 263 261 259 257 255 254 252 249 246 243 240 237 235 233 231 230
281 280 279 278 278 278 278 278 279 279 280 280 280 280 280 280 279 278 278 277 276 275 274 273 272 272 271 271 271 271 270 270 270 270 269 268 266 264 262 260 257 255 253 251 249 246 242 239 236 234 232 230
282 281 280 280 280 281 282 282 282 283 283 282 282 282 281 281 280 279 278 278 277 275 275 274 273 272 272 271 271 271 271 271 270 270 270 269 269 267 265 263 261 258 255 252 250 248 245 242 238 236 233 230
283 283 283 284 285 286 286 286 286 285 285 284 284 284 283 282 281 281 280 279 278 277 276 275 274 273 273 272 271 271 271 270 270 270 270 270 269 268 267 265 263 261 258 255 252 250 247 245 241 238 235 232
287 287 288 289 289 289 288 288 288 287 287 287 286 285 285 284 283 283 282 281 280 279 278 277 276 275 274 273 273 272 272 271 271 271 270 270 269 268 267 265 263 260 258 256 253 251 249 247 244 241 237 234
291 291 291 291 291 290 290 289 289 288 288 288 288 287 286 286 285 285 284 283 282 281 280 279 278 277 276 275 275 274 274 273 273 272 272 271 270 268 266 264 262 259 257 254 252 250 249 247 245 243 239 236
293 293 292 292 292 291 290 290 290 290 290 290 289 289 288 287 286 285 284 284 283 282 281 280 279 279 278 277 277 276 275 275 275 274 273 272 271 269 267 264 261 259 256 254 251 249 248 246 245 244 241 238
295 294 293 292 291 291 291 291 291 291 291 290 290 289 288 287 286 285 284 283 283 282 282 281 280 280 279 278 278 277 276 276 275 275 275 274 272 270 268 265 262 259 257 254 252 250 248 246 245 244 242 240
295 294 293 292 292 292 292 292 291 291 290 290 289 288 288 287 286 285 285 284 284 283 283 282 281 281 280 279 279 278 277 277 276 276 276 276 274 273 270 267 263 260 258 255 253 250 248 246 244 243 243 241
295 294 294 294 294 293 292 292 291 290 290 290 290 289 289 288 288 287 287 286 285 285 284 283 283 282 281 280 280 279 278 278 277 277 277 277 277 275 273 270 265 262 259 256 253 251 249 246 244 242 242 241
296 295 295 295 294 293 292 292 292 291 291 292 292 292 291 291 290 290 289 288 287 287 286 285 284 283 282 281 280 280 279 278 278 278 278 278 278 277 275 272 268 264 260 257 254 251 249 246 244 241 240 240
298 297 296 295 295 294 294 294 294 294 294 295 295 294 294 293 293 292 291 291 290 289 288 287 286 285 284 282 282 281 280 279 279 278 279 279 279 278 277 274 270 266 262 259 255 252 249 246 243 241 239 238
298 298 297 296 296 296 296 296 296 296 296 296 296 296 295 295 294 294 294 293 292 292 291 289 288 287 285 284 283 282 281 280 279 279 279 279 279 279 278 276 272 268 264 260 256 252 249 246 242 240 238 237
298 298 298 298 297 297 297 298 298 298 298 298 297 297 297 297 297 297 296 296 295 294 293 292 291 289 288 286 285 284 282 281 280 279 279 279 279 279 279 277 274 271 267 262 257 253 249 245 242 239 237 236
299 299 299 299 299 298 299 299 300 300 300 300 300 300 300 300 300 299 299 298 297 296 295 294 293 292 290 289 287 285 283 282 281 280 279 280 280 280 279 278 276 273 269 264 258 253 249 245 241 238 237 236
301 300 300 300 300 300 301 301 302 302 303 303 303 303 303 302 302 301 301 300 299 298 296 295 294 293 291 290 288 287 284 282 281 280 280 280 280 280 280 279 277 275 271 266 260 254 249 244 241 238 236 235
302 302 302 302 302 302 303 303 303 304 304 304 305 304 304 303 303 302 302 301 300 299 297 296 294 293 292 290 289 287 285 283 281 281 280 280 280 280 280 280 278 276 273 267 261 255 250 245 241 238 237 235
304 304 304 304 304 305 305 305 305 305 305 305 305 304 304 304 303 303 302 301 301 299 298 296 294 293 291 290 288 287 285 283 282 281 280 280 280 280 280 280 279 277 274 268 262 257 251 246 241 238 237 235
304 305 305 305 305 305 305 305 305 305 306 306 305 305 304 304 303 302 302 301 300 299 297 296 294 292 291 289 288 286 285 283 282 281 281 280 280 280 280 280 279 278 275 269 263 258 253 247 242 238 237 236
304 304 304 305 305 305 305 305 306 306 306 306 305 304 304 303 303 302 301 300 299 298 296 295 293 292 290 288 287 285 284 283 282 282 281 281 281 281 281 280 279 278 275 269 264 259 254 248 244 239 236 235
304 304 304 305 305 305 306 306 306 306 306 306 305 304 303 303 302 301 300 299 297 296 295 294 292 291 289 287 286 284 284 283 282 282 281 281 281 281 281 280 279 277 274 269 264 259 255 249 245 241 237 235
304 305 305 306 306 306 306 306 306 305 305 305 304 304 303 302 301 300 299 298 296 295 294 292 291 290 288 287 285 284 283 283 282 282 281 281 281 281 280 280 279 277 274 269 264 260 255 250 246 242 238 235